New Bern, NC

12:20 AM EDT on March 29, 2017 (GMT -0400)
Craven County Regional

Weather History for KEWN - August, 2014

Change the Weather History Date:

Sunday, August 31, 2014

  Actual Average Record
Temperature  
Mean Temperature 82 °F 78 °F  
Max Temperature 92 °F 86 °F 96 °F (1957)
Min Temperature 71 °F 69 °F 53 °F (1965)
Degree Days  
Heating Degree Days 0 0  
Month to date heating degree days 0 0  
Since 1 June heating degree days 0 1  
Since 1 July heating degree days 0 0  
Cooling Degree Days 17 13  
Month to date cooling degree days 446 439  
Year to date cooling degree days 1711 1529  
Since 1 June cooling degree days 1350 1286  
Growing Degree Days 31 (Base 50)    
Moisture  
Dew Point 71 °F    
Average Humidity 71    
Maximum Humidity 93    
Minimum Humidity 49    
Precipitation  
Precipitation 0.00 in 0.19 in 3.64 in (2006)
Month to date precipitation 9.13 6.65  
Year to date precipitation 37.01 36.80  
Snow  
Snow 0.00 in - - ()
Month to date snowfall 0.0  
Since 1 July snowfall 0.0  
Snow Depth 0.00 in    
Sea Level Pressure  
Sea Level Pressure 30.16 in    
Wind  
Wind Speed 4 mph (SSW)    
Max Wind Speed 14 mph    
Max Gust Speed 17 mph    
Visibility 9 miles    
Events Fog , Rain    
T = Trace of Precipitation, MM = Missing Value Source: NWS Daily Summary

Daily Weather History Graph

Daily Weather History Graph

Search for Another Location

Airport or City:

Trip Planner

Search our weather history database for the weather conditions in past years. The results will help you decide how hot, cold, wet, or windy it might be!

Date:

Astronomy

Aug. 31, 2014 Rise Set
Actual Time 6:40 AM EDT 7:36 PM EDT
Civil Twilight 6:14 AM EDT 8:02 PM EDT
Nautical Twilight 5:43 AM EDT 8:32 PM EDT
Astronomical Twilight 5:11 AM EDT 9:04 PM EDT
Moon 12:10 PM EDT (8/31) 11:04 PM EDT (8/31)
Length of Visible Light 13h 48m
Length of Day
12h 56m
Waxing Crescent, 32% of the Moon is Illuminated
Aug 31
Waxing Crescent
Sep 2
First Quarter
Sep 8
Full
Sep 15
Last Quarter
Sep 24
New

Hourly Weather History & Observations

Time (EDT) Temp. Heat Index Dew Point Humidity Pressure Visibility Wind Dir Wind Speed Gust Speed Precip Events Conditions
12:54 AM 75.0 °F - 71.1 °F 87% 30.20 in 8.0 mi Calm Calm - 0.00 in   Clear
1:54 AM 73.9 °F - 71.1 °F 91% 30.19 in 10.0 mi Calm Calm - 0.00 in   Clear
2:54 AM 75.0 °F - 71.1 °F 87% 30.18 in 7.0 mi Calm Calm - N/A   Clear
3:54 AM 73.0 °F - 69.1 °F 87% 30.17 in 9.0 mi Calm Calm - 0.00 in   Clear
4:54 AM 73.9 °F - 70.0 °F 87% 30.17 in 10.0 mi Calm Calm - 0.00 in Rain Light Rain
5:26 AM 71.6 °F - 69.8 °F 94% 30.18 in 8.0 mi Calm Calm - 0.00 in   Partly Cloudy
5:54 AM 72.0 °F - 68.0 °F 87% 30.18 in 10.0 mi Calm Calm - 0.00 in   Clear
6:22 AM 71.6 °F - 68.0 °F 88% 30.19 in 1.2 mi Calm Calm - N/A   Clear
6:26 AM 71.6 °F - 68.0 °F 88% 30.19 in 0.5 mi Calm Calm - N/A Fog Fog
6:38 AM 71.6 °F - 69.8 °F 94% 30.19 in 1.0 mi Calm Calm - N/A   Clear
6:46 AM 71.6 °F - 69.8 °F 94% 30.19 in 8.0 mi Calm Calm - N/A   Clear
6:54 AM 72.0 °F - 69.1 °F 91% 30.20 in 8.0 mi Calm Calm - N/A   Clear
7:54 AM 75.9 °F - 72.0 °F 87% 30.21 in 9.0 mi Calm Calm - N/A   Clear
8:54 AM 81.0 °F 86.2 °F 73.9 °F 79% 30.21 in 10.0 mi Calm Calm - N/A   Clear
9:54 AM 84.9 °F 91.4 °F 73.0 °F 67% 30.21 in 10.0 mi WSW 4.6 mph - N/A   Clear
10:54 AM 86.0 °F 93.0 °F 73.0 °F 65% 30.19 in 10.0 mi WSW 5.8 mph - N/A   Partly Cloudy
11:54 AM 89.1 °F 96.0 °F 72.0 °F 57% 30.17 in 10.0 mi Variable 4.6 mph - N/A   Partly Cloudy
12:54 PM 91.0 °F 96.6 °F 70.0 °F 50% 30.15 in 10.0 mi Variable 5.8 mph - N/A   Partly Cloudy
1:54 PM 91.0 °F 97.6 °F 71.1 °F 52% 30.14 in 10.0 mi SSW 3.5 mph - N/A   Mostly Cloudy
2:54 PM 91.0 °F 98.2 °F 72.0 °F 53% 30.12 in 10.0 mi SSE 10.4 mph - N/A   Clear
3:54 PM 91.0 °F 95.6 °F 69.1 °F 48% 30.11 in 10.0 mi South 10.4 mph - N/A   Clear
4:54 PM 89.1 °F 93.7 °F 69.1 °F 52% 30.10 in 10.0 mi SSW 9.2 mph - N/A   Clear
5:54 PM 88.0 °F 92.1 °F 69.1 °F 53% 30.10 in 10.0 mi South 9.2 mph - N/A   Clear
6:54 PM 84.9 °F 89.4 °F 70.0 °F 61% 30.09 in 10.0 mi South 6.9 mph - N/A   Clear
7:54 PM 82.0 °F 87.4 °F 73.0 °F 74% 30.11 in 10.0 mi South 5.8 mph - N/A   Clear
8:54 PM 80.1 °F 84.2 °F 73.0 °F 79% 30.12 in 10.0 mi South 3.5 mph - 0.00 in Rain Light Rain
9:54 PM 78.1 °F - 73.0 °F 84% 30.13 in 10.0 mi SSW 4.6 mph - 0.00 in   Clear
10:54 PM 79.0 °F - 73.9 °F 84% 30.13 in 10.0 mi South 3.5 mph - N/A   Clear
11:54 PM 78.1 °F - 73.9 °F 87% 30.13 in 10.0 mi South 3.5 mph - 0.00 in   Clear